Beach, ND

8:34 AM MST on November 22, 2019 (GMT -0700)
Beach

Weather History for K20U - October, 2019

Change the Weather History Date:

Tuesday, October 22, 2019

  Actual Average (KGDV) Record (KGDV)
Temperature  
Mean Temperature 34 °F -  
Max Temperature 48 °F 51 °F 84 °F (2003)
Min Temperature 21 °F 30 °F 6 °F (2002)
Degree Days  
Heating Degree Days 30    
Moisture  
Dew Point 30 °F    
Average Humidity 79    
Maximum Humidity 100    
Minimum Humidity 34    
Precipitation  
Precipitation 0.00 in - - ()
Sea Level Pressure  
Sea Level Pressure 29.85 in    
Wind  
Wind Speed 6 mph ()    
Max Wind Speed 15 mph    
Max Gust Speed 17 mph    
Visibility 9.5 miles    
Events Rain    
Averages and records for this station are not official NWS values.
T = Trace of Precipitation, MM = Missing Value Source: Averaged Metar Reports

Daily Weather History Graph

Daily Weather History Graph

Search for Another Location

Airport or City:

Astronomy

Oct. 22, 2019 Rise Set
Actual Time 7:23 AM MDT 5:56 PM MDT
Civil Twilight 6:52 AM MDT 6:27 PM MDT
Nautical Twilight 6:17 AM MDT 7:02 PM MDT
Astronomical Twilight 5:41 AM MDT 7:37 PM MDT
Moon 12:04 AM MDT 3:36 PM MDT
Length of Visible Light 11h 34m
Length of Day
10h 32m
Last Quarter, 36% of the Moon is Illuminated
Oct 22
Last Quarter
Oct 27
New
Nov 4
First Quarter
Nov 12
Full
Nov 19
Last Quarter

Hourly Weather History & Observations

Time (MDT) Temp. Windchill Dew Point Humidity Pressure Visibility Wind Dir Wind Speed Gust Speed Precip Events Conditions
12:15 AM 21.2 °F 13.6 °F 19.4 °F 93% 29.99 in 10.0 mi SSW 5.8 mph - N/A   Clear
12:35 AM 23.0 °F 17.0 °F 23.0 °F 100% 29.99 in 10.0 mi SW 4.6 mph - N/A   Clear
12:55 AM 26.6 °F 21.2 °F 24.8 °F 93% 29.98 in 10.0 mi SW 4.6 mph - N/A   Clear
1:15 AM 24.8 °F 19.1 °F 23.0 °F 93% 29.98 in 10.0 mi SW 4.6 mph - N/A   Partly Cloudy
1:35 AM 26.6 °F - 24.8 °F 93% 29.98 in 10.0 mi Calm Calm - N/A   Mostly Cloudy
1:55 AM 28.4 °F - 26.6 °F 93% 29.97 in 10.0 mi Calm Calm - N/A   Overcast
2:15 AM 30.2 °F - 26.6 °F 86% 29.97 in 10.0 mi Calm Calm - N/A   Overcast
2:35 AM 30.2 °F - 28.4 °F 93% 29.96 in 10.0 mi Calm Calm - N/A   Overcast
2:55 AM 30.2 °F - 26.6 °F 86% 29.96 in 10.0 mi Calm Calm - N/A   Overcast
3:15 AM 30.2 °F 26.7 °F 28.4 °F 93% 29.96 in 10.0 mi Variable 3.5 mph - N/A   Overcast
3:35 AM 32.0 °F 23.0 °F 30.2 °F 93% 29.95 in 10.0 mi WSW 11.5 mph - N/A   Overcast
3:55 AM 33.8 °F 26.4 °F 30.2 °F 87% 29.94 in 10.0 mi West 9.2 mph - N/A   Overcast
4:15 AM 33.8 °F 25.3 °F 30.2 °F 87% 29.94 in 10.0 mi West 11.5 mph - N/A   Overcast
4:35 AM 33.8 °F 25.3 °F 30.2 °F 87% 29.94 in 10.0 mi West 11.5 mph - N/A   Overcast
4:55 AM 33.8 °F 25.3 °F 30.2 °F 87% 29.94 in 10.0 mi West 11.5 mph - N/A   Overcast
5:15 AM 33.8 °F 25.3 °F 30.2 °F 87% 29.93 in 10.0 mi West 11.5 mph - N/A   Overcast
5:35 AM 32.0 °F 23.6 °F 28.4 °F 87% 29.93 in 10.0 mi West 10.4 mph - N/A   Mostly Cloudy
5:55 AM 32.0 °F 22.5 °F 28.4 °F 87% 29.93 in 10.0 mi West 12.7 mph - N/A   Partly Cloudy
6:15 AM 30.2 °F 22.6 °F 28.4 °F 93% 29.93 in 10.0 mi West 8.1 mph - N/A   Clear
6:35 AM 30.2 °F 23.4 °F 26.6 °F 86% 29.93 in 10.0 mi West 6.9 mph - N/A   Clear
6:55 AM 28.4 °F 19.7 °F 26.6 °F 93% 29.93 in 10.0 mi West 9.2 mph - N/A   Clear
7:15 AM 28.4 °F 20.4 °F 26.6 °F 93% 29.94 in 10.0 mi West 8.1 mph - N/A   Clear
7:35 AM 28.4 °F 21.2 °F 26.6 °F 93% 29.94 in 10.0 mi West 6.9 mph - N/A   Clear
7:55 AM 28.4 °F 20.4 °F 28.4 °F 100% 29.94 in 10.0 mi West 8.1 mph - N/A   Clear
8:15 AM 30.2 °F 22.6 °F 28.4 °F 93% 29.94 in 10.0 mi WNW 8.1 mph - N/A   Clear
8:35 AM 32.0 °F 25.6 °F 30.2 °F 93% 29.93 in 10.0 mi WNW 6.9 mph - N/A   Clear
8:55 AM 35.6 °F 30.7 °F 30.2 °F 81% 29.93 in 10.0 mi WNW 5.8 mph - N/A   Clear
9:15 AM 37.4 °F 32.1 °F 30.2 °F 75% 29.92 in 10.0 mi West 6.9 mph - N/A   Clear
9:35 AM 39.2 °F 33.0 °F 32.0 °F 75% 29.92 in 10.0 mi WNW 9.2 mph - N/A   Clear
9:55 AM 41.0 °F 35.8 °F 32.0 °F 70% 29.92 in 10.0 mi NW 8.1 mph - N/A   Clear
10:15 AM 42.8 °F 38.6 °F 30.2 °F 61% 29.91 in 10.0 mi NW 6.9 mph - N/A   Clear
10:35 AM 42.8 °F 37.5 °F 30.2 °F 61% 29.91 in 10.0 mi NW 9.2 mph - N/A   Clear
10:55 AM 44.6 °F 40.7 °F 30.2 °F 57% 29.90 in 10.0 mi NW 6.9 mph - N/A   Clear
11:15 AM 46.4 °F 41.5 °F 28.4 °F 50% 29.90 in 10.0 mi WNW 10.4 mph - N/A   Clear
11:55 AM 46.4 °F 41.5 °F 26.6 °F 46% 29.88 in 10.0 mi WNW 10.4 mph - N/A   Clear
12:15 PM 48.2 °F - 23.0 °F 37% 29.87 in 10.0 mi NW 12.7 mph - N/A   Clear
12:35 PM 48.2 °F - 23.0 °F 37% 29.87 in 10.0 mi West 11.5 mph 17.3 mph N/A   Clear
12:55 PM 48.2 °F - 21.2 °F 34% 29.85 in 10.0 mi WNW 11.5 mph - N/A   Clear
1:15 PM 48.2 °F - 23.0 °F 37% 29.84 in 10.0 mi West 11.5 mph - N/A   Clear
1:35 PM 48.2 °F - 24.8 °F 40% 29.83 in 10.0 mi West 12.7 mph - N/A   Clear
1:55 PM 48.2 °F - 24.8 °F 40% 29.82 in 10.0 mi West 10.4 mph - N/A   Clear
2:15 PM 48.2 °F - 26.6 °F 43% 29.82 in 10.0 mi WNW 6.9 mph - N/A   Partly Cloudy
2:35 PM 46.4 °F 42.4 °F 26.6 °F 46% 29.81 in 10.0 mi West 8.1 mph - N/A   Mostly Cloudy
2:55 PM 46.4 °F 43.5 °F 26.6 °F 46% 29.80 in 10.0 mi West 5.8 mph - N/A   Partly Cloudy
3:15 PM 46.4 °F 44.3 °F 26.6 °F 46% 29.80 in 10.0 mi West 4.6 mph - N/A   Partly Cloudy
3:35 PM 46.4 °F 45.2 °F 26.6 °F 46% 29.78 in 10.0 mi West 3.5 mph - N/A   Mostly Cloudy
3:55 PM 46.4 °F 42.9 °F 28.4 °F 50% 29.77 in 10.0 mi SW 6.9 mph - N/A   Overcast
4:15 PM 44.6 °F 40.2 °F 26.6 °F 49% 29.78 in 10.0 mi WSW 8.1 mph - N/A   Overcast
4:35 PM 44.6 °F 41.4 °F 28.4 °F 53% 29.79 in 10.0 mi WSW 5.8 mph - N/A   Overcast
4:55 PM 42.8 °F 37.0 °F 30.2 °F 61% 29.78 in 9.0 mi WSW 10.4 mph 17.3 mph N/A   Overcast
5:15 PM 42.8 °F 37.5 °F 32.0 °F 66% 29.78 in 10.0 mi WSW 9.2 mph - N/A   Mostly Cloudy
5:35 PM 41.0 °F - 32.0 °F 70% 29.78 in 5.0 mi Calm Calm - N/A   Light Drizzle
5:55 PM 41.0 °F 38.0 °F 32.0 °F 70% 29.77 in 5.0 mi SW 4.6 mph - N/A   Light Drizzle
6:15 PM 39.2 °F 35.9 °F 37.4 °F 93% 29.76 in 10.0 mi SSW 4.6 mph - N/A   Overcast
6:35 PM 39.2 °F 35.0 °F 37.4 °F 93% 29.74 in 10.0 mi SSE 5.8 mph - N/A   Overcast
6:55 PM 39.2 °F 34.2 °F 37.4 °F 93% 29.72 in 10.0 mi ESE 6.9 mph - N/A   Overcast
7:15 PM 39.2 °F 35.9 °F 37.4 °F 93% 29.73 in 10.0 mi SE 4.6 mph - N/A   Overcast
7:35 PM 39.2 °F - 37.4 °F 93% 29.75 in 10.0 mi Calm Calm - N/A   Overcast
7:55 PM 37.4 °F - 37.4 °F 100% 29.76 in 6.0 mi Calm Calm - N/A Rain Light Rain
8:15 PM 37.4 °F 32.1 °F 37.4 °F 100% 29.74 in 5.0 mi South 6.9 mph - N/A   Light Drizzle
8:35 PM 37.4 °F 32.1 °F 37.4 °F 100% 29.72 in 10.0 mi SE 6.9 mph - N/A   Overcast
8:55 PM 37.4 °F 32.1 °F 37.4 °F 100% 29.71 in 10.0 mi ESE 6.9 mph - N/A   Overcast
9:15 PM 37.4 °F 31.4 °F 37.4 °F 100% 29.72 in 10.0 mi ESE 8.1 mph - N/A   Overcast
9:35 PM 37.4 °F 31.4 °F 37.4 °F 100% 29.73 in 10.0 mi SSE 8.1 mph - N/A   Overcast
9:55 PM 37.4 °F 32.1 °F 37.4 °F 100% 29.72 in 10.0 mi SE 6.9 mph - N/A   Overcast
10:15 PM 37.4 °F 30.8 °F 37.4 °F 100% 29.72 in 10.0 mi SE 9.2 mph - N/A   Overcast
10:35 PM 37.4 °F 31.4 °F 37.4 °F 100% 29.73 in 10.0 mi SSE 8.1 mph - N/A   Overcast
10:55 PM 37.4 °F 31.4 °F 37.4 °F 100% 29.73 in 10.0 mi SSE 8.1 mph - N/A   Overcast
11:15 PM 37.4 °F 32.1 °F 37.4 °F 100% 29.72 in 3.0 mi SE 6.9 mph - N/A   Light Drizzle
11:35 PM 37.4 °F 30.8 °F 37.4 °F 100% 29.72 in 3.0 mi SE 9.2 mph - N/A   Light Drizzle
11:55 PM 37.4 °F 28.5 °F 37.4 °F 100% 29.72 in 10.0 mi SE 15.0 mph - N/A   Overcast